Menominee, MI

5:28 PM CST on November 23, 2017 (GMT -0600)
Menominee-Marinette Twin County

Weather History for KMNM - September, 2013

Change the Weather History Date:

Monday, September 23, 2013

  Actual Average Record
Temperature  
Mean Temperature 45 °F -  
Max Temperature 57 °F 65 °F 88 °F (2017)
Min Temperature 33 °F 44 °F 23 °F (1974)
Degree Days  
Heating Degree Days 20    
Moisture  
Dew Point 42 °F    
Average Humidity 81    
Maximum Humidity 100    
Minimum Humidity 63    
Precipitation  
Precipitation 0.00 in - - ()
Sea Level Pressure  
Sea Level Pressure 30.12 in    
Wind  
Wind Speed 3 mph (SSE)    
Max Wind Speed 13 mph    
Max Gust Speed 17 mph    
Averages and records for this station are not official NWS values.
T = Trace of Precipitation, MM = Missing Value Source: NWS Daily Summary

Daily Weather History Graph

Daily Weather History Graph

Search for Another Location

Airport or City:

Trip Planner

Search our weather history database for the weather conditions in past years. The results will help you decide how hot, cold, wet, or windy it might be!

Date:

Astronomy

Sep. 23, 2013 Rise Set
Actual Time 6:39 AM CDT 6:45 PM CDT
Civil Twilight 6:09 AM CDT 7:14 PM CDT
Nautical Twilight 5:35 AM CDT 7:49 PM CDT
Astronomical Twilight 4:59 AM CDT 8:24 PM CDT
Moon 9:04 PM CDT 11:10 AM CDT
Length of Visible Light 13h 05m
Length of Day
12h 06m
Waning Gibbous, 81% of the Moon is Illuminated
Sep 23
Waning Gibbous
Sep 26
Last Quarter
Oct 4
New
Oct 11
First Quarter
Oct 18
Full

Hourly Weather History & Observations

Time (CDT) Temp. Dew Point Humidity Pressure Visibility Wind Dir Wind Speed Gust Speed Precip Events Conditions
12:15 AM 41.0 °F 37.4 °F 87% 30.09 in - Calm Calm - N/A   Unknown
12:35 AM 39.2 °F 37.4 °F 93% 30.09 in - Calm Calm - N/A   Unknown
12:55 AM 39.2 °F 37.4 °F 93% 30.09 in - Calm Calm - N/A   Unknown
1:15 AM 39.2 °F 37.4 °F 93% 30.10 in - Calm Calm - N/A   Unknown
1:35 AM 37.4 °F 37.4 °F 100% 30.10 in - Calm Calm - N/A   Unknown
1:55 AM 39.2 °F 37.4 °F 93% 30.11 in - Calm Calm - N/A   Unknown
2:15 AM 37.4 °F 37.4 °F 100% 30.10 in - Calm Calm - N/A   Unknown
2:35 AM 37.4 °F 35.6 °F 93% 30.10 in - Calm Calm - N/A   Unknown
2:55 AM 39.2 °F 35.6 °F 87% 30.09 in - Calm Calm - N/A   Unknown
3:15 AM 37.4 °F 35.6 °F 93% 30.09 in - Calm Calm - N/A   Unknown
3:35 AM 37.4 °F 35.6 °F 93% 30.10 in - Calm Calm - N/A   Unknown
3:55 AM 37.4 °F 35.6 °F 93% 30.10 in - Calm Calm - N/A   Unknown
4:15 AM 39.2 °F 35.6 °F 87% 30.11 in - Calm Calm - N/A   Unknown
4:35 AM 35.6 °F 35.6 °F 100% 30.11 in - Calm Calm - N/A   Unknown
4:55 AM 35.6 °F 35.6 °F 100% 30.11 in - Calm Calm - N/A   Unknown
5:15 AM 35.6 °F 35.6 °F 100% 30.11 in - Calm Calm - N/A   Unknown
5:35 AM 37.4 °F 33.8 °F 87% 30.11 in - Calm Calm - N/A   Unknown
5:55 AM 35.6 °F 33.8 °F 93% 30.12 in - Calm Calm - N/A   Unknown
6:15 AM 35.6 °F 33.8 °F 93% 30.12 in - Calm Calm - N/A   Unknown
6:35 AM 33.8 °F 33.8 °F 100% 30.13 in - Calm Calm - N/A   Unknown
6:55 AM 35.6 °F 33.8 °F 93% 30.13 in - Calm Calm - N/A   Unknown
7:15 AM 37.4 °F 35.6 °F 93% 30.13 in - Calm Calm - N/A   Unknown
7:35 AM 37.4 °F 37.4 °F 100% 30.14 in - Calm Calm - N/A   Unknown
7:55 AM 39.2 °F 37.4 °F 93% 30.14 in - Calm Calm - N/A   Unknown
8:15 AM 42.8 °F 42.8 °F 100% 30.14 in - Calm Calm - N/A   Unknown
8:35 AM 44.6 °F 42.8 °F 93% 30.14 in - Calm Calm - N/A   Mostly Cloudy
8:55 AM 46.4 °F 44.6 °F 93% 30.15 in - Calm Calm - N/A   Overcast
9:15 AM 50.0 °F 46.4 °F 87% 30.15 in - Calm Calm - N/A   Overcast
9:35 AM 51.8 °F 46.4 °F 82% 30.15 in - SSW 4.6 mph - N/A   Overcast
9:55 AM 53.6 °F 44.6 °F 72% 30.15 in - SSE 9.2 mph - N/A   Overcast
10:15 AM 53.6 °F 42.8 °F 67% 30.16 in - South 9.2 mph - N/A   Overcast
10:35 AM 55.4 °F 44.6 °F 67% 30.16 in - SSE 8.1 mph - N/A   Mostly Cloudy
10:55 AM 55.4 °F 44.6 °F 67% 30.17 in - South 5.8 mph - N/A   Mostly Cloudy
11:15 AM 55.4 °F 44.6 °F 67% 30.16 in - SSE 9.2 mph - N/A   Mostly Cloudy
11:35 AM 57.2 °F 44.6 °F 63% 30.16 in - SSE 10.4 mph - N/A   Scattered Clouds
11:55 AM 57.2 °F 44.6 °F 63% 30.16 in - South 8.1 mph - N/A   Mostly Cloudy
12:15 PM 57.2 °F 44.6 °F 63% 30.16 in - South 8.1 mph - N/A   Partly Cloudy
12:35 PM 57.2 °F 44.6 °F 63% 30.15 in - South 8.1 mph 17.3 mph N/A   Partly Cloudy
12:55 PM 57.2 °F 44.6 °F 63% 30.14 in - SSE 9.2 mph - N/A   Partly Cloudy
1:15 PM 57.2 °F 44.6 °F 63% 30.13 in - South 9.2 mph - N/A   Clear
1:35 PM 57.2 °F 44.6 °F 63% 30.13 in - SSE 9.2 mph - N/A   Partly Cloudy
1:55 PM 57.2 °F 44.6 °F 63% 30.12 in - South 10.4 mph - N/A   Partly Cloudy
2:15 PM 57.2 °F 44.6 °F 63% 30.12 in - SSE 9.2 mph - N/A   Clear
2:35 PM 57.2 °F 44.6 °F 63% 30.11 in - South 8.1 mph - N/A   Scattered Clouds
2:55 PM 57.2 °F 44.6 °F 63% 30.11 in - SSE 10.4 mph 16.1 mph N/A   Scattered Clouds
3:15 PM 57.2 °F 44.6 °F 63% 30.10 in - SSE 9.2 mph - N/A   Clear
3:35 PM 57.2 °F 46.4 °F 67% 30.10 in - South 10.4 mph - N/A   Clear
3:55 PM 57.2 °F 44.6 °F 63% 30.10 in - South 9.2 mph - N/A   Clear
4:15 PM 57.2 °F 44.6 °F 63% 30.10 in - SSE 10.4 mph - N/A   Clear
4:35 PM 57.2 °F 46.4 °F 67% 30.11 in - SSE 12.7 mph - N/A   Clear
4:55 PM 57.2 °F 46.4 °F 67% 30.10 in - SSE 12.7 mph - N/A   Clear
5:15 PM 57.2 °F 46.4 °F 67% 30.10 in - SSE 11.5 mph - N/A   Clear
5:35 PM 57.2 °F 46.4 °F 67% 30.10 in - SSE 11.5 mph - N/A   Clear
5:55 PM 57.2 °F 46.4 °F 67% 30.10 in - SSE 9.2 mph - N/A   Clear
6:15 PM 55.4 °F 46.4 °F 72% 30.10 in - SSE 12.7 mph - N/A   Clear
6:35 PM 55.4 °F 44.6 °F 67% 30.10 in - South 6.9 mph - N/A   Clear
6:55 PM 55.4 °F 44.6 °F 67% 30.10 in - South 8.1 mph - N/A   Clear
7:15 PM 53.6 °F 44.6 °F 72% 30.10 in - South 6.9 mph - N/A   Clear
7:35 PM 53.6 °F 44.6 °F 72% 30.10 in - South 4.6 mph - N/A   Clear
7:55 PM 51.8 °F 44.6 °F 76% 30.10 in - South 4.6 mph - N/A   Clear
8:15 PM 51.8 °F 44.6 °F 76% 30.10 in - South 3.5 mph - N/A   Clear
8:35 PM 51.8 °F 44.6 °F 76% 30.10 in - South 5.8 mph - N/A   Clear
8:55 PM 50.0 °F 46.4 °F 87% 30.10 in - Calm Calm - N/A   Unknown
9:15 PM 48.2 °F 44.6 °F 87% 30.09 in - Calm Calm - N/A   Unknown
9:35 PM 48.2 °F 44.6 °F 87% 30.10 in - Calm Calm - N/A   Unknown
9:55 PM 46.4 °F 44.6 °F 93% 30.10 in - Calm Calm - N/A   Unknown
10:15 PM 46.4 °F 44.6 °F 93% 30.10 in - Calm Calm - N/A   Unknown
10:35 PM 44.6 °F 42.8 °F 93% 30.09 in - Calm Calm - N/A   Unknown
10:55 PM 44.6 °F 42.8 °F 93% 30.09 in - Calm Calm - N/A   Unknown
11:15 PM 44.6 °F 41.0 °F 87% 30.09 in - Calm Calm - N/A   Unknown
11:35 PM 42.8 °F 41.0 °F 93% 30.09 in - Calm Calm - N/A   Unknown
11:55 PM 44.6 °F 42.8 °F 93% 30.09 in - Calm Calm - N/A   Unknown